Date String (YYYY-MM-DD hh:mm:ss) UTC,Instrument flags,Ambient pressure (hPa),Sample flow (lpm),Bypass flow (lpm),Sample temperature (°C),Ambient temperature (°C),ASC tube jacket temperature (°C),LED temperature (°C),Box temperature (°C),Sample RH (%),Span deviation,Mass concentration (μg/m³),Mass concentration (μg/m³),Mass concentration (μg/m³)
DateTimeUTC,F1_M11,P_M11,Q1_M11,Q2_M11,T1_M11,T2_M11,T3_M11,T4_M11,T5_M11,U1_M11,ZSPAN_M11,X2_M11,X0_M11,X1_M11
2022-01-31 20:00:00,,0813.0,5.02,0.00,23.5,22.8,00.0,32.4,25.3,04.9,0000.0,0000.30,0001.59,0000.23
2022-01-31 20:01:00,,0813.0,4.99,0.00,23.6,22.8,00.0,32.4,25.3,04.8,0000.0,0000.29,0000.95,0000.22
2022-01-31 20:02:00,,0813.0,5.01,0.00,23.6,22.8,00.0,32.4,25.4,04.8,0000.0,0000.30,0000.96,0000.22
2022-01-31 20:03:00,,0813.0,4.99,0.00,23.6,22.8,00.0,32.4,25.4,04.4,0000.0,0000.32,0000.99,0000.21
2022-01-31 20:04:00,,0812.9,5.01,0.00,23.6,22.8,00.0,32.4,25.4,04.6,0000.0,0000.31,0000.98,0000.21
2022-01-31 20:05:00,,0812.9,5.00,0.00,23.6,22.9,00.0,32.5,25.5,05.1,0000.0,0000.30,0000.95,0000.21
2022-01-31 20:06:00,,0812.8,4.98,0.00,23.7,22.9,00.0,32.5,25.5,04.7,0000.0,0000.31,0000.97,0000.21
2022-01-31 20:07:00,,0812.7,5.01,0.00,23.7,22.9,00.0,32.5,25.5,04.8,0000.0,0000.33,0000.99,0000.21
2022-01-31 20:08:00,,0812.8,4.99,0.00,23.7,22.9,00.0,32.5,25.5,04.3,0000.0,0000.36,0000.82,0000.21
2022-01-31 20:09:00,,0812.8,4.99,0.00,23.7,23.0,00.0,32.5,25.5,04.3,0000.0,0000.38,0001.45,0000.21
2022-01-31 20:10:00,,0812.9,5.01,0.00,23.8,23.0,00.0,32.5,25.6,04.2,0000.0,0000.41,0001.84,0000.22
2022-01-31 20:11:00,,0812.8,4.99,0.00,23.8,23.0,00.0,32.6,25.6,04.4,0000.0,0000.41,0001.79,0000.22
2022-01-31 20:12:00,,0812.8,5.00,0.00,23.8,23.0,00.0,32.6,25.6,05.1,0000.0,0000.42,0003.30,0000.22
2022-01-31 20:13:00,,0812.7,4.99,0.00,23.8,23.1,00.0,32.6,25.6,04.8,0000.0,0000.52,0006.88,0000.23
2022-01-31 20:14:00,,0812.5,5.01,0.00,23.9,23.1,00.0,32.6,25.6,04.7,0000.0,0000.52,0007.42,0000.23
2022-01-31 20:15:00,,0812.4,4.99,0.00,23.9,23.1,00.0,32.7,25.6,05.0,0000.0,0000.54,0007.71,0000.24
2022-01-31 20:16:00,,0812.4,5.01,0.00,23.9,23.1,00.0,32.7,25.7,05.1,0000.0,0000.57,0007.75,0000.24
2022-01-31 20:17:00,,0812.4,4.99,0.00,23.9,23.2,00.0,32.7,25.7,04.6,0000.0,0000.58,0007.74,0000.25
2022-01-31 20:18:00,,0812.4,4.99,0.00,23.9,23.1,00.0,32.7,25.6,04.3,0000.0,0000.57,0007.73,0000.25
2022-01-31 20:19:00,,0812.4,5.00,0.00,23.9,23.1,00.0,32.7,25.7,04.1,0000.0,0000.55,0007.72,0000.25
2022-01-31 20:20:00,,0812.4,5.01,0.00,23.9,23.1,00.0,32.8,25.7,04.7,0000.0,0000.54,0007.22,0000.26
2022-01-31 20:21:00,,0812.4,4.99,0.00,24.0,23.1,00.0,32.8,25.8,05.2,0000.0,0000.52,0007.17,0000.25
2022-01-31 20:22:00,,0812.5,5.00,0.00,24.0,23.2,00.0,32.8,25.8,04.3,0000.0,0000.52,0007.64,0000.25
2022-01-31 20:23:00,,0812.3,5.01,0.00,24.0,23.2,00.0,32.8,25.8,04.6,0000.0,0000.53,0006.29,0000.26
2022-01-31 20:24:00,,0812.4,4.99,0.00,24.0,23.2,00.0,32.8,25.8,04.6,0000.0,0000.47,0003.67,0000.27
2022-01-31 20:25:00,,0812.5,5.01,0.00,24.0,23.2,00.0,32.8,25.8,04.7,0000.0,0000.46,0003.45,0000.26
2022-01-31 20:26:00,,0812.5,4.99,0.00,24.0,23.3,00.0,32.9,25.9,04.8,0000.0,0000.44,0002.91,0000.27
2022-01-31 20:27:00,,0812.6,5.01,0.00,24.1,23.3,00.0,32.9,25.9,04.5,0000.0,0000.44,0003.00,0000.26
2022-01-31 20:28:00,,0812.7,5.00,0.00,24.1,23.4,00.0,32.9,25.9,04.4,0000.0,0000.42,0002.98,0000.26
2022-01-31 20:29:00,,0812.8,4.99,0.00,24.1,23.4,00.0,32.9,26.0,04.2,0000.0,0000.44,0003.07,0000.26
2022-01-31 20:30:00,,0812.7,5.02,0.00,24.2,23.4,00.0,32.9,26.0,04.6,0000.0,0000.45,0003.08,0000.26
2022-01-31 20:31:00,,0812.5,4.98,0.00,24.2,23.5,00.0,33.0,26.0,04.2,0000.0,0000.44,0003.07,0000.26
2022-01-31 20:32:00,,0812.5,5.02,0.00,24.2,23.5,00.0,33.0,26.1,04.9,0000.0,0000.43,0002.85,0000.26
2022-01-31 20:33:00,,0812.6,5.00,0.00,24.2,23.5,00.0,33.0,26.1,04.5,0000.0,0000.43,0002.15,0000.26
2022-01-31 20:34:00,,0812.6,4.99,0.00,24.2,23.6,00.0,33.0,26.1,04.7,0000.0,0000.44,0001.77,0000.25
2022-01-31 20:35:00,,0812.5,5.01,0.00,24.2,23.5,00.0,33.0,26.1,05.3,0000.0,0000.40,0001.33,0000.25
2022-01-31 20:36:00,,0812.7,5.00,0.00,24.2,23.5,00.0,33.1,26.1,04.8,0000.0,0000.42,0001.00,0000.25
2022-01-31 20:37:00,,0812.8,5.02,0.00,24.2,23.5,00.0,33.1,26.1,04.5,0000.0,0000.45,0001.07,0000.25
2022-01-31 20:38:00,,0812.8,4.98,0.00,24.2,23.5,00.0,33.1,26.1,04.5,0000.0,0000.43,0000.91,0000.25
2022-01-31 20:39:00,,0812.7,5.00,0.00,24.3,23.5,00.0,33.1,26.1,05.1,0000.0,0000.44,0000.92,0000.25
2022-01-31 20:40:00,,0812.6,5.01,0.00,24.3,23.5,00.0,33.1,26.1,05.1,0000.0,0000.43,0000.94,0000.26
2022-01-31 20:41:00,,0812.5,5.00,0.00,24.3,23.5,00.0,33.1,26.2,05.0,0000.0,0000.43,0001.13,0000.27
2022-01-31 20:42:00,,0812.6,5.00,0.00,24.3,23.5,00.0,33.2,26.2,04.6,0000.0,0000.44,0001.16,0000.27
2022-01-31 20:43:00,,0812.6,5.01,0.00,24.3,23.6,00.0,33.2,26.2,05.0,0000.0,0000.49,0002.30,0000.28
2022-01-31 20:44:00,,0812.8,4.99,0.00,24.3,23.6,00.0,33.2,26.2,04.5,0000.0,0000.51,0002.77,0000.28
2022-01-31 20:45:00,,0812.8,5.00,0.00,24.3,23.6,00.0,33.2,26.2,04.4,0000.0,0000.49,0002.71,0000.29
2022-01-31 20:46:00,,0812.7,5.00,0.00,24.3,23.6,00.0,33.2,26.1,04.5,0000.0,0000.49,0002.71,0000.29
2022-01-31 20:47:00,,0812.7,5.01,0.00,24.3,23.6,00.0,33.2,26.2,04.8,0000.0,0000.50,0002.72,0000.30
2022-01-31 20:48:00,,0812.8,5.00,0.00,24.3,23.6,00.0,33.2,26.2,04.7,0000.0,0000.48,0002.67,0000.30
2022-01-31 20:49:00,,0812.7,5.00,0.00,24.4,23.6,00.0,33.2,26.2,05.1,0000.0,0000.47,0002.67,0000.30
2022-01-31 20:50:00,,0812.7,5.01,0.00,24.4,23.6,00.0,33.3,26.2,05.5,0000.0,0000.49,0002.71,0000.30
2022-01-31 20:51:00,,0812.6,5.00,0.00,24.4,23.6,00.0,33.3,26.2,05.8,0000.0,0000.52,0002.68,0000.29
2022-01-31 20:52:00,,0812.6,5.00,0.00,24.4,23.6,00.0,33.3,26.3,05.4,0000.0,0000.52,0002.42,0000.28
2022-01-31 20:53:00,,0812.6,5.00,0.00,24.4,23.7,00.0,33.3,26.2,04.9,0000.0,0000.52,0002.60,0000.29
2022-01-31 20:54:00,,0812.7,4.99,0.00,24.4,23.7,00.0,33.3,26.3,05.3,0000.0,0000.50,0001.99,0000.29
2022-01-31 20:55:00,,0812.9,5.01,0.00,24.4,23.7,00.0,33.3,26.3,04.7,0000.0,0000.49,0001.58,0000.28
2022-01-31 20:56:00,,0813.0,5.01,0.00,24.4,23.7,00.0,33.3,26.3,04.4,0000.0,0000.47,0001.54,0000.27
2022-01-31 20:57:00,,0812.7,4.99,0.00,24.4,23.7,00.0,33.3,26.3,04.3,0000.0,0000.47,0001.54,0000.27
2022-01-31 20:58:00,,0812.6,5.01,0.00,24.4,23.7,00.0,33.3,26.3,04.8,0000.0,0000.44,0001.46,0000.27
2022-01-31 20:59:00,,0812.5,5.00,0.00,24.4,23.7,00.0,33.3,26.3,04.6,0000.0,0000.43,0001.43,0000.27
